Regional Weather Roundup
Issued by NWS

Home | Current Version | Previous Version | Text Only | Print | Product List | Glossary Off
Versions: 1 2 3 4 5 6 7 8 9 10 11 12 13 14 15 16 17 18 19 20 21 22 23 24 25 26 27 28 29 30 31 32 33 34 35 36 37 38 39 40 41 42 43 44 45 46 47 48 49 50

000
ASUS43 KLMK 230310
RWRKY
KENTUCKY REGIONAL WEATHER ROUNDUP
NATIONAL WEATHER SERVICE LOUISVILLE KY
1000 PM EST WED FEB 22 2017

NOTE "FAIR" INDICATES FEW OR NO CLOUDS BELOW 12,000 FEET
WITH NO SIGNIFICANT WEATHER AND/OR OBSTRUCTIONS TO VISIBILITY.

KYZ001>023-026-027-061>063-070>075-230400-
WESTERN AND SOUTH CENTRAL KENTUCKY

CITY           SKY/WX    TMP DP  RH WIND       PRES   REMARKS
PADUCAH        CLEAR     58  52  80 SE7       29.78F
HENDERSON      CLEAR     57  52  82 S3        29.78F
OWENSBORO      MOCLDY    63  58  83 S6        29.81R
HOPKINSVILLE   CLEAR     62  55  79 S6        29.83S
BOWLING GREEN  CLOUDY    61  56  83 S7        29.85R
GLASGOW        PTCLDY    59  55  84 S3        29.85S
$$

KYZ024-025-028>034-038-045-046-053-230400-
NORTH CENTRAL KENTUCKY

CITY           SKY/WX    TMP DP  RH WIND       PRES   REMARKS
LOUISVILLE/SDF CLOUDY    67  55  65 S8        29.81F
LOUISVILLE/LOU CLOUDY    67  56  67 S6        29.82F
FORT KNOX      CLOUDY    62  57  81 S7        29.81F
$$

KYZ035>037-039>044-047>052-055>060-089>105-230400-
NORTHEAST KENTUCKY

CITY           SKY/WX    TMP DP  RH WIND       PRES   REMARKS
LEXINGTON      CLOUDY    61  55  81 S7        29.86S
COVINGTON      CLOUDY    62  56  80 S7        29.82S
FRANKFORT      CLOUDY    63  54  72 S5        29.83S
$$

KYZ054-064>069-076>088-106>120-230400-
SOUTHEAST KENTUCKY

CITY           SKY/WX    TMP DP  RH WIND       PRES   REMARKS
JACKSON        CLOUDY    57  53  86 S5        29.89R
LONDON         CLEAR     57  52  83 S6        29.89F
SOMERSET       CLEAR     57  52  82 CALM      29.89S
MIDDLESBORO    PTCLDY    52  52 100 CALM      29.93S
MONTICELLO     CLEAR     54  53  97 W10       29.89S
$$





USA.gov is the U.S. government's official web portal to all federal, state and local government web resources and services.